Weather in Sedona

United States     34°52′10″N   111°45′36″W
temp.,
°C
wind,
m/s
gust,
m/s
humid.,
%
clouds,
%
prec.,
mm/h
press.,
hPa
HPBL,
m
25 may, wed
wed2500:00+16ne33175 0.0 101119
03:00+14ene221919 0.0 101113
06:00+13ene43208 0.0 101325
09:00+22sw01135 0.0 1013515
12:00+27wsw54102 0.0 10111794
15:00+31wsw4590 0.0 10082838
18:00+32wsw5580 0.0 10063613
21:00+22se33161 0.0 100813
26 may, thu
thu2600:00+18e22210 0.0 101212
03:00+16ne22230 0.0 101212
06:00+14ene21263 0.0 101311
09:00+23sw11165 0.0 1014386
12:00+29sw331126 0.0 10121250
15:00+33sw5595 0.0 10093386
18:00+31ssw86105 0.0 10092788
21:00+22s33195 0.0 101114
27 may, fri
fri2700:00+18e22253 0.0 101314
03:00+16ene22290 0.0 101314
06:00+15ene22330 0.0 101413
09:00+23ssw33229 0.0 1014423
12:00+29sw6712100 0.0 10122071
15:00+31sw6895 0.0 10102737
18:00+30ssw991096 0.0 10082832
21:00+21s3319100 0.0 101016
28 may, sat
sat2800:00+19e2221100 0.0 101012
03:00+16s112588 0.0 100911
06:00+12ese112965 0.0 101011
09:00+20ssw2518100 0.0 1010516
12:00+26ssw791483 0.0 10072024
15:00+29ssw1011125 0.0 10042613
18:00+28ssw1012122 0.0 10022634
21:00+21ssw59200 0.0 1003163
29 may, sun
sun2900:00+16sse352822 0.0 100360
03:00+14s23340 0.0 100256
06:00+12sse22470 0.0 100312
09:00+18sw47370 0.0 1004892
12:00+24ssw1012220 0.0 10012479
15:00+26ssw1315180 0.0 9993095
18:00+26ssw10142086 0.0 9963773
21:00+21sw61119100 0.0 998467